Weather History for KY63 - March, 2013

Change the Weather History Date:

Wednesday, March 20, 2013

  Actual Average (WUND) Record (WUND)
Temperature  
Mean Temperature 2 °F -  
Max Temperature 12 °F - - (-1)
Min Temperature -7 °F - - (-1)
Degree Days  
Heating Degree Days 62    
Moisture  
Dew Point -2 °F    
Average Humidity 78    
Maximum Humidity 92    
Minimum Humidity 67    
Precipitation  
Precipitation 0.00 in - - ()
Sea Level Pressure  
Sea Level Pressure 30.24 in    
Wind  
Wind Speed 12 mph (NW)    
Max Wind Speed 17 mph    
Max Gust Speed -    
Visibility 10 miles    
Events      
Averages and records for this station are not official NWS values.
T = Trace of Precipitation, MM = Missing Value Source: NWS Daily Summary

Daily Weather History Graph

Daily Weather History Graph

Search for Another Location

Airport or City:

Trip Planner

Search our weather history database for the weather conditions in past years. The results will help you decide how hot, cold, wet, or windy it might be!

Date:

Astronomy

Mar. 20, 2013 Rise Set
Actual Time 7:26 AM CDT 7:36 PM CDT
Civil Twilight 6:56 AM CDT 8:06 PM CDT
Nautical Twilight 6:21 AM CDT 8:41 PM CDT
Astronomical Twilight 5:45 AM CDT 9:17 PM CDT
Moon 12:55 PM CDT (3/20) 3:24 AM CDT (3/20)
Length of Visible Light 13h 10m
Length of Day
12h 10m
First Quarter, 59% of the Moon is Illuminated
Mar 20
First Quarter
Mar 27
Full
Apr 2
Last Quarter
Apr 10
New
Apr 18
First Quarter

Hourly Weather History & Observations

Time (CDT) Temp. Windchill Dew Point Humidity Pressure Visibility Wind Dir Wind Speed Gust Speed Precip Events Conditions
12:35 AM -0.4 °F -18.4 °F -4.0 °F 85% 30.28 in 10.0 mi NW 12.7 mph - N/A   Clear
12:55 AM 1.4 °F -16.9 °F -4.0 °F 78% 30.27 in 10.0 mi NW 13.8 mph - N/A   Clear
1:15 AM -0.4 °F -17.6 °F -4.0 °F 85% 30.27 in 10.0 mi NW 11.5 mph - N/A   Clear
1:35 AM -0.4 °F -17.6 °F -4.0 °F 85% 30.28 in 10.0 mi NW 11.5 mph - N/A   Clear
1:55 AM -0.4 °F -18.4 °F -4.0 °F 85% 30.28 in 10.0 mi NW 12.7 mph - N/A   Clear
2:15 AM -0.4 °F -18.4 °F -4.0 °F 85% 30.28 in 10.0 mi NW 12.7 mph - N/A   Clear
2:35 AM -0.4 °F -17.6 °F -4.0 °F 85% 30.28 in 10.0 mi NW 11.5 mph - N/A   Clear
2:55 AM -4.0 °F -20.2 °F -5.8 °F 92% 30.28 in 10.0 mi WNW 9.2 mph - N/A   Clear
3:15 AM -4.0 °F -19.0 °F -5.8 °F 92% 30.28 in 10.0 mi WNW 8.1 mph - N/A   Clear
3:35 AM -4.0 °F -19.0 °F -7.6 °F 85% 30.29 in 10.0 mi WNW 8.1 mph - N/A   Clear
3:55 AM -5.8 °F -22.4 °F -7.6 °F 92% 30.28 in 10.0 mi WNW 9.2 mph - N/A   Clear
4:15 AM -5.8 °F -21.2 °F -9.4 °F 84% 30.28 in 10.0 mi WNW 8.1 mph - N/A   Clear
4:35 AM -4.0 °F -22.1 °F -5.8 °F 92% 30.28 in 10.0 mi NW 11.5 mph - N/A   Clear
4:55 AM -5.8 °F -19.9 °F -9.4 °F 84% 30.28 in 10.0 mi NW 6.9 mph - N/A   Clear
5:15 AM -4.0 °F -21.2 °F -5.8 °F 92% 30.28 in 10.0 mi NW 10.4 mph - N/A   Clear
5:55 AM -4.0 °F -22.1 °F -5.8 °F 92% 30.28 in 10.0 mi NW 11.5 mph - N/A   Clear
6:15 AM -4.0 °F -21.2 °F -7.6 °F 85% 30.28 in 10.0 mi NW 10.4 mph - N/A   Clear
6:35 AM -5.8 °F -19.9 °F -9.4 °F 84% 30.29 in 10.0 mi WNW 6.9 mph - N/A   Clear
6:55 AM -5.8 °F -22.4 °F -9.4 °F 84% 30.30 in 10.0 mi WNW 9.2 mph - N/A   Clear
7:15 AM -5.8 °F -23.4 °F -9.4 °F 84% 30.30 in 10.0 mi WNW 10.4 mph - N/A   Clear
7:35 AM -7.6 °F -23.4 °F -13.0 °F 77% 30.30 in 10.0 mi WNW 8.1 mph - N/A   Clear
7:55 AM -7.6 °F -24.6 °F -11.2 °F 84% 30.30 in 10.0 mi NW 9.2 mph - N/A   Clear
8:15 AM -5.8 °F -22.4 °F -9.4 °F 84% 30.30 in 10.0 mi WNW 9.2 mph - N/A   Clear
8:35 AM -7.6 °F -22.1 °F -11.2 °F 84% 30.30 in 10.0 mi NW 6.9 mph - N/A   Clear
8:55 AM -5.8 °F -21.2 °F -9.4 °F 84% 30.29 in 10.0 mi WNW 8.1 mph - N/A   Clear
9:15 AM -5.8 °F -22.4 °F -9.4 °F 84% 30.29 in 10.0 mi WNW 9.2 mph - N/A   Clear
9:35 AM -2.2 °F -18.9 °F -7.6 °F 78% 30.29 in 10.0 mi NW 10.4 mph - N/A   Clear
9:55 AM -0.4 °F -18.4 °F -5.8 °F 78% 30.29 in 10.0 mi NW 12.7 mph - N/A   Clear
10:15 AM -0.4 °F -17.6 °F -5.8 °F 78% 30.28 in 10.0 mi NW 11.5 mph - N/A   Clear
10:35 AM 1.4 °F -16.9 °F -5.8 °F 72% 30.28 in 10.0 mi NW 13.8 mph - N/A   Clear
10:55 AM 1.4 °F -16.1 °F -4.0 °F 78% 30.28 in 10.0 mi NW 12.7 mph - N/A   Clear
11:15 AM 1.4 °F -16.1 °F -4.0 °F 78% 30.28 in 10.0 mi NW 12.7 mph - N/A   Clear
11:35 AM 1.4 °F -16.1 °F -4.0 °F 78% 30.28 in 10.0 mi NW 12.7 mph - N/A   Clear
11:55 AM 3.2 °F -13.9 °F -2.2 °F 78% 30.27 in 10.0 mi NW 12.7 mph - N/A   Clear
12:15 PM 5.0 °F -12.3 °F -0.4 °F 78% 30.26 in 10.0 mi NW 13.8 mph - N/A   Clear
12:35 PM 5.0 °F -13.0 °F -0.4 °F 78% 30.26 in 10.0 mi NW 15.0 mph - N/A   Clear
12:55 PM 6.8 °F -10.7 °F -0.4 °F 72% 30.25 in 10.0 mi NW 15.0 mph - N/A   Clear
1:15 PM 8.6 °F -8.9 °F 1.4 °F 73% 30.25 in 10.0 mi NW 16.1 mph - N/A   Clear
1:35 PM 8.6 °F -6.3 °F 1.4 °F 73% 30.24 in 10.0 mi NW 11.5 mph - N/A   Clear
1:55 PM 8.6 °F -8.3 °F 1.4 °F 73% 30.24 in 10.0 mi WNW 15.0 mph - N/A   Clear
2:15 PM 10.4 °F -6.0 °F 3.2 °F 73% 30.23 in 10.0 mi NW 15.0 mph - N/A   Clear
2:35 PM 10.4 °F -6.0 °F 3.2 °F 73% 30.22 in 10.0 mi NW 15.0 mph - N/A   Clear
2:55 PM 10.4 °F -7.2 °F 3.2 °F 73% 30.21 in 10.0 mi NW 17.3 mph - N/A   Clear
3:15 PM 10.4 °F -6.0 °F 3.2 °F 73% 30.21 in 10.0 mi NW 15.0 mph - N/A   Clear
3:35 PM 12.2 °F -4.3 °F 3.2 °F 67% 30.21 in 10.0 mi NW 16.1 mph - N/A   Clear
3:55 PM 12.2 °F -4.3 °F 3.2 °F 67% 30.20 in 10.0 mi NW 16.1 mph - N/A   Clear
4:15 PM 12.2 °F -4.3 °F 3.2 °F 67% 30.20 in 10.0 mi NW 16.1 mph - N/A   Clear
4:35 PM 12.2 °F -4.3 °F 5.0 °F 73% 30.20 in 10.0 mi NW 16.1 mph - N/A   Clear
4:55 PM 12.2 °F -3.7 °F 5.0 °F 73% 30.19 in 10.0 mi NW 15.0 mph - N/A   Clear
5:15 PM 12.2 °F -3.7 °F 5.0 °F 73% 30.18 in 10.0 mi NW 15.0 mph - N/A   Clear
5:35 PM 12.2 °F -3.7 °F 5.0 °F 73% 30.18 in 10.0 mi NW 15.0 mph - N/A   Clear
5:55 PM 12.2 °F -3.7 °F 3.2 °F 67% 30.17 in 10.0 mi NW 15.0 mph - N/A   Clear
6:15 PM 12.2 °F -3.7 °F 3.2 °F 67% 30.17 in 10.0 mi NW 15.0 mph - N/A   Clear
6:35 PM 12.2 °F -3.1 °F 3.2 °F 67% 30.17 in 10.0 mi NW 13.8 mph - N/A   Clear
6:55 PM 10.4 °F -3.3 °F 3.2 °F 73% 30.16 in 10.0 mi NW 10.4 mph - N/A   Clear
7:15 PM 10.4 °F -4.1 °F 3.2 °F 73% 30.17 in 10.0 mi NW 11.5 mph - N/A   Clear
7:35 PM 8.6 °F -5.5 °F 3.2 °F 79% 30.17 in 10.0 mi NW 10.4 mph - N/A   Clear
7:55 PM 8.6 °F -4.7 °F 3.2 °F 79% 30.16 in 10.0 mi NW 9.2 mph - N/A   Clear
8:15 PM 6.8 °F -7.8 °F 1.4 °F 79% 30.16 in 10.0 mi NW 10.4 mph - N/A   Clear
8:35 PM 6.8 °F -7.8 °F 1.4 °F 79% 30.16 in 10.0 mi NW 10.4 mph - N/A   Clear
8:55 PM 6.8 °F -6.9 °F 1.4 °F 79% 30.17 in 10.0 mi NNW 9.2 mph - N/A   Clear
9:15 PM 8.6 °F -5.5 °F 1.4 °F 73% 30.17 in 10.0 mi NNW 10.4 mph - N/A   Clear
9:35 PM 6.8 °F -6.9 °F 1.4 °F 79% 30.17 in 10.0 mi NW 9.2 mph - N/A   Clear
9:55 PM 8.6 °F -5.5 °F -0.4 °F 67% 30.16 in 10.0 mi NNW 10.4 mph - N/A   Clear
10:15 PM 8.6 °F -3.7 °F -0.4 °F 67% 30.16 in 10.0 mi NNW 8.1 mph - N/A   Clear
10:35 PM 5.0 °F -8.1 °F -0.4 °F 78% 30.16 in 10.0 mi NNW 8.1 mph - N/A   Clear
10:55 PM 5.0 °F -8.1 °F -0.4 °F 78% 30.16 in 10.0 mi NNW 8.1 mph - N/A   Clear
11:15 PM 5.0 °F -6.9 °F -2.2 °F 72% 30.15 in 10.0 mi NNW 6.9 mph - N/A   Clear
11:55 PM 1.4 °F -9.9 °F -4.0 °F 78% 30.14 in 10.0 mi NNW 5.8 mph - N/A   Clear